M3SXA-5 Weather Reports


time (UTC)temp
C
wind
direction
speed
KPH
gust
KPH
rain 1hr
cm
rain 24hr
cm
rain mn
cm
humidity
%
barometer
mb
20260508054559 7 305 0.0 0.0 0.00 0.05 0.00 94 1017.4
20260508053107 7 305 0.0 0.0 0.00 0.05 0.00 94 1017.4
20260508051558 6 305 0.0 0.0 0.00 0.05 0.00 94 1017.4
20260508044557 6 305 0.0 0.0 0.00 0.05 0.00 94 1017.3
20260508043103 6 305 0.0 0.0 0.00 0.05 0.00 94 1017.3
20260508041600 6 305 0.0 0.0 0.00 0.05 0.00 93 1017.3
20260508040053 6 305 0.0 0.0 0.00 0.05 0.00 92 1017.2
20260508034554 6 305 0.0 0.0 0.00 0.05 0.00 92 1017.3
20260508033049 6 305 0.0 0.0 0.00 0.05 0.00 93 1017.3
20260508031547 7 305 0.0 0.0 0.00 0.05 0.00 92 1017.4
20260508030047 7 305 0.0 0.0 0.00 0.05 0.00 92 1017.4
20260508024547 7 305 0.0 0.0 0.00 0.05 0.00 92 1017.5
20260508023047 7 305 0.0 0.0 0.00 0.05 0.00 92 1017.6
20260508021554 7 305 0.0 0.0 0.00 0.05 0.00 91 1017.5
20260508020048 7 305 0.0 0.0 0.00 0.05 0.00 90 1017.4
20260508014541 7 305 0.0 0.0 0.00 0.05 0.00 90 1017.3
20260508013052 7 305 0.0 0.0 0.00 0.05 0.00 88 1017.4
20260508011541 8 305 0.0 0.0 0.00 0.05 0.00 88 1017.4
20260508010035 8 305 0.0 0.0 0.00 0.05 0.00 87 1017.3
20260508004532 9 305 0.0 1.6 0.00 0.05 0.00 87 1017.4
20260508003030 9 311 0.0 1.6 0.00 0.05 0.00 87 1017.5
20260508001554 9 311 0.0 0.0 0.00 0.05 0.00 88 1017.6
20260508000026 9 311 0.0 0.0 0.00 0.05 0.00 87 1017.6
20260507234526 10 311 0.0 0.0 0.00 0.05 0.00 87 1017.7
20260507233024 10 311 0.0 0.0 0.00 0.05 0.00 86 1017.7
20260507231529 10 311 0.0 1.6 0.00 0.05 0.00 86 1017.5
20260507230016 10 311 0.0 1.6 0.00 0.05 0.00 86 1017.6
20260507224516 10 314 0.0 1.6 0.00 0.05 0.05 86 1017.8
20260507223016 10 324 0.0 1.6 0.03 0.05 0.05 86 1017.7
20260507221515 10 326 0.0 1.6 0.03 0.05 0.05 86 1017.7
20260507220025 10 312 0.0 3.2 0.05 0.05 0.05 86 1017.7
20260507214515 10 322 0.0 3.2 0.05 0.05 0.05 85 1017.8
20260507213014 10 321 0.0 3.2 0.03 0.03 0.03 83 1017.8
20260507211513 11 321 0.0 4.8 0.00 0.00 0.00 81 1017.7
20260507210013 11 305 0.0 4.8 0.00 0.00 0.00 77 1017.5
20260507204512 11 329 0.0 4.8 0.00 0.00 0.00 76 1017.5
20260507203011 11 339 1.6 4.8 0.00 0.00 0.00 74 1017.3
20260507201513 11 305 1.6 8.0 0.00 0.00 0.00 72 1017.1
20260507200013 12 20 1.6 8.0 0.00 0.00 0.00 71 1016.8
20260507194510 12 316 1.6 6.4 0.00 0.00 0.00 68 1016.7
20260507193010 12 316 0.0 6.4 0.00 0.00 0.00 66 1016.5
20260507191509 12 311 0.0 4.8 0.00 0.00 0.00 66 1016.6
20260507190011 13 306 0.0 3.2 0.00 0.00 0.00 65 1016.6
20260507184508 13 319 0.0 6.4 0.00 0.00 0.00 63 1016.5
20260507183008 13 301 0.0 6.4 0.00 0.00 0.00 60 1016.5
20260507181507 13 300 0.0 6.4 0.00 0.00 0.00 59 1016.4
20260507180009 13 331 0.0 6.4 0.00 0.00 0.00 57 1016.3
20260507174506 14 319 0.0 3.2 0.00 0.00 0.00 53 1016.2
20260507173005 15 326 1.6 4.8 0.00 0.00 0.00 52 1016.2
20260507171512 15 321 1.6 3.2 0.00 0.00 0.00 51 1016.2
20260507170002 15 340 0.0 3.2 0.00 0.00 0.00 53 1016.3
20260507164502 15 26 0.0 6.4 0.00 0.00 0.00 53 1016.3
20260507163002 15 352 1.6 9.7 0.00 0.00 0.00 50 1016.3
20260507161500 15 334 0.0 3.2 0.00 0.00 0.00 46 1016.3
20260507160100 15 333 0.0 4.8 0.00 0.00 0.00 46 1016.3
20260507154605 16 356 0.0 4.8 0.00 0.00 0.00 43 1016.2
20260507153102 16 323 0.0 6.4 0.00 0.00 0.00 46 1016.3
20260507151558 16 206 0.0 6.4 0.00 0.00 0.00 44 1016.4
20260507150057 16 15 0.0 4.8 0.00 0.00 0.00 44 1016.4
20260507144556 16 307 0.0 6.4 0.00 0.00 0.00 44 1016.5
20260507143055 16 93 0.0 4.8 0.00 0.00 0.00 45 1016.6
20260507141554 16 311 0.0 6.4 0.00 0.00 0.00 40 1016.8
20260507140052 16 22 0.0 3.2 0.00 0.00 0.00 43 1016.9
20260507134551 15 353 0.0 3.2 0.00 0.00 0.00 45 1017.0
20260507133048 15 314 0.0 1.6 0.00 0.00 0.00 47 1017.0
20260507131558 15 79 0.0 4.8 0.00 0.00 0.00 47 1017.1
20260507124551 15 314 0.0 6.4 0.00 0.00 0.00 49 1017.2
20260507123044 15 338 0.0 4.8 0.00 0.00 0.00 50 1017.3
20260507121547 15 309 0.0 4.8 0.00 0.00 0.00 50 1017.2
20260507120043 15 306 1.6 8.0 0.00 0.00 0.00 49 1017.4
20260507114546 15 319 1.6 6.4 0.00 0.00 0.00 52 1017.4
20260507113039 15 314 1.6 6.4 0.00 0.00 0.00 53 1017.4
20260507111537 15 338 0.0 8.0 0.00 0.00 0.00 56 1017.5
20260507110035 14 309 1.6 8.0 0.00 0.00 0.00 56 1017.6
20260507104532 14 359 0.0 8.0 0.00 0.00 0.00 59 1017.7
20260507103033 13 313 0.0 4.8 0.00 0.00 0.00 61 1017.7
20260507101532 13 27 1.6 4.8 0.00 0.00 0.00 59 1017.8
20260507100035 13 303 1.6 6.4 0.00 0.00 0.00 61 1017.8
20260507094528 13 346 0.0 4.8 0.00 0.00 0.00 64 1017.7
20260507093025 12 335 0.0 3.2 0.00 0.00 0.00 66 1017.8
20260507091522 12 323 0.0 4.8 0.00 0.00 0.00 69 1017.7
20260507090022 11 334 0.0 4.8 0.00 0.00 0.00 74 1017.7
20260507084518 11 311 1.6 6.4 0.00 0.00 0.00 71 1017.9
20260507083015 11 326 0.0 3.2 0.00 0.00 0.00 73 1017.8
20260507081530 11 349 0.0 4.8 0.00 0.00 0.00 74 1017.7
20260507080009 10 305 1.6 4.8 0.00 0.00 0.00 79 1017.7
20260507074517 9 313 0.0 3.2 0.00 0.00 0.00 81 1017.7
20260507073006 10 337 0.0 4.8 0.00 0.00 0.00 81 1017.7
20260507071504 8 307 0.0 3.2 0.00 0.00 0.00 85 1017.7
20260507070002 8 342 0.0 3.2 0.00 0.00 0.00 85 1017.6
20260507064558 8 297 0.0 3.2 0.00 0.00 0.00 88 1017.7
20260507063057 7 317 0.0 3.2 0.00 0.00 0.00 91 1017.7
20260507061552 7 347 0.0 1.6 0.00 0.00 0.00 92 1017.6
20260507060048 6 349 0.0 1.6 0.00 0.00 0.00 93 1017.3